Wind_Speed
38 33 36 40 67 94 114 121 118 114 114 106 104 104 102 102 100 100 91 90 89 87 83 79 81 75 66 67 55 54 52 49 46 45 47 47 42 41 35 30 30 28 25 24 24
43 39 42 42 56 84 105 121 121 120 116 114 102 106 107 105 102 100 100 91 91 88 84 80 74 65 65 58 61 69 69 63 57 50 51 50 43 42 38 34 35 33 28 26 21
56 40 40 48 51 75 100 117 125 125 121 119 109 107 109 107 106 102 101 93 94 93 87 74 73 76 74 75 63 59 60 59 58 52 56 52 50 46 43 39 38 37 29 31 24
67 43 40 51 53 65 89 109 122 127 124 120 119 107 104 108 109 106 107 100 92 93 93 86 74 75 73 70 69 66 69 62 58 52 56 54 53 49 48 45 41 40 31 30 29
72 55 41 49 58 60 82 102 116 128 129 126 123 114 112 107 108 104 104 106 100 94 92 91 82 79 75 69 68 70 69 63 56 58 58 59 53 50 51 49 46 43 40 33 34
69 61 49 43 58 60 71 95 112 124 131 128 124 121 109 108 110 108 109 104 103 99 93 88 84 79 79 75 75 68 68 65 61 62 60 60 59 56 52 52 49 47 43 39 39
68 59 49 41 52 60 65 90 105 118 130 135 127 126 123 114 111 108 106 107 103 101 97 96 89 84 85 82 77 74 73 70 62 65 65 63 60 61 55 55 51 49 47 49 43
70 58 46 39 46 57 64 77 101 116 125 134 134 128 122 120 116 113 109 111 108 105 101 100 96 91 88 83 86 80 74 73 64 67 70 63 60 63 59 57 54 54 51 52 49
69 57 44 35 41 54 63 72 93 111 120 132 137 135 130 121 119 119 114 109 108 108 107 99 100 99 93 88 82 84 83 79 74 66 69 68 66 67 64 63 58 57 57 56 57
68 55 43 31 39 53 63 72 84 105 118 121 135 139 135 132 120 120 115 108 112 110 108 104 100 102 94 89 87 81 77 80 78 76 75 75 74 75 71 64 64 63 59 63 63
68 53 42 32 34 50 61 71 80 98 114 122 127 135 139 137 130 120 121 113 112 109 105 107 108 105 99 99 92 91 88 86 84 82 80 77 75 74 69 65 65 63 63 57 55
70 52 42 33 30 47 59 68 80 91 108 120 122 133 140 139 133 127 122 117 114 111 111 107 107 105 101 98 99 96 91 85 84 84 81 77 75 72 70 70 69 64 62 61 56
70 54 40 33 29 39 56 65 76 86 103 113 121 126 139 140 137 135 126 119 113 112 112 107 104 103 104 98 99 98 98 90 86 87 83 80 77 74 75 74 70 65 66 65 61
69 55 39 31 27 35 52 63 71 82 93 110 117 123 132 142 139 141 135 132 122 118 112 113 107 102 105 103 97 100 98 96 93 91 90 89 84 81 78 79 74 71 71 69 68
73 58 39 29 25 30 44 61 68 76 88 103 113 120 127 135 139 140 140 136 129 121 115 105 107 104 104 108 101 98 97 97 98 95 92 91 89 85 82 80 80 74 72 74 73
78 60 41 27 23 27 38 55 65 71 83 92 108 116 122 126 138 141 140 141 138 133 120 113 111 110 105 99 102 104 101 98 96 95 96 92 90 85 85 84 82 76 78 79 77
82 65 44 27 20 23 33 45 59 68 75 86 97 111 118 123 129 137 140 139 139 135 134 122 115 111 109 105 104 102 101 102 101 98 92 91 94 88 82 83 79 78 78 80 82
86 65 45 28 16 19 28 34 52 73 78 83 90 101 112 117 122 130 139 139 139 134 136 130 122 114 111 112 106 102 103 102 100 98 96 94 92 91 86 87 86 85 85 84 82
95 68 48 30 15 14 23 34 52 70 76 81 88 93 104 113 118 122 128 139 137 137 141 137 133 125 119 117 114 109 108 103 100 100 103 97 95 96 92 90 92 93 91 85 85
100 70 53 33 16 10 17 29 44 60 73 77 83 87 94 105 112 116 119 129 136 134 136 137 139 136 133 119 118 115 116 114 107 107 103 100 98 99 99 94 94 91 88 83 82
103 78 55 35 18 8 13 24 36 50 65 72 77 83 89 94 103 111 115 117 128 132 133 134 140 138 136 130 124 121 122 121 113 114 107 106 99 100 98 99 94 95 97 94 98
103 83 62 39 21 10 8 18 29 43 57 67 73 78 84 88 91 101 109 114 117 124 123 128 131 134 137 130 128 124 130 120 121 120 115 108 105 108 103 102 100 97 95 95 96
105 91 62 45 26 13 6 11 24 35 45 59 69 73 78 82 83 86 95 105 110 115 120 126 128 128 132 133 130 132 131 128 129 124 124 119 117 114 110 111 109 108 110 110 108
102 97 67 51 32 19 9 6 14 26 37 48 62 68 72 76 77 80 83 92 100 109 114 117 119 121 124 129 128 129 129 130 131 129 125 126 124 124 121 121 115 117 121 117 117
98 102 72 58 40 23 14 6 7 20 29 38 51 63 69 71 75 77 77 81 88 97 104 109 111 114 116 120 123 125 127 129 128 130 131 130 130 127 126 130 123 124 127 127 123
93 99 85 61 49 33 20 11 4 9 21 31 40 51 64 69 71 72 73 75 78 83 91 96 99 103 107 109 110 112 115 121 123 127 129 129 130 131 127 134 132 129 130 132 127
88 95 96 66 55 39 27 16 8 2 9 18 28 39 49 62 65 68 70 71 73 74 75 80 87 92 96 98 101 103 103 108 113 117 121 125 129 126 127 128 131 133 131 131 131
Wind_Direction
317 283 264 236 220 214 214 212 211 209 206 208 208 209 211 209 213 214 213 215 214 215 216 222 221 221 223 218 210 210 216 217 220 223 229 233 229 236 246 254 253 258 271 268 283
323 303 266 247 224 217 213 213 211 210 207 209 209 209 211 212 213 215 215 217 216 216 216 219 222 216 223 224 224 228 232 237 224 228 230 232 231 236 243 249 254 256 265 265 273
331 303 270 254 233 217 214 213 213 212 209 211 209 207 210 213 213 216 214 212 217 218 214 215 220 224 224 227 230 224 221 219 227 230 228 232 234 236 239 246 248 252 259 260 262
330 308 275 252 241 221 215 212 212 214 212 209 211 207 209 213 215 216 219 214 214 218 220 221 214 224 224 226 228 223 228 229 226 230 225 230 234 237 243 245 249 243 256 255 255
326 310 283 256 244 231 216 213 212 212 213 212 211 208 210 211 215 215 216 217 214 216 220 221 221 225 221 220 221 223 229 219 230 223 222 227 234 241 246 242 249 239 245 255 254
318 306 291 260 246 234 221 212 212 211 213 212 212 210 207 210 211 216 217 219 217 216 217 217 216 220 217 216 219 226 224 223 227 225 228 227 238 241 244 244 246 240 244 249 261
317 309 294 269 245 237 226 214 211 210 211 213 212 210 209 210 211 214 218 220 220 218 217 218 216 217 222 224 222 226 228 227 226 230 232 233 235 241 245 245 244 240 245 247 256
322 314 296 272 244 235 226 217 210 211 211 211 212 211 209 210 210 214 218 220 222 219 219 219 219 218 222 225 225 225 225 229 234 229 230 233 237 237 243 243 244 245 251 252 255
327 318 300 272 246 234 225 219 212 211 210 212 212 212 212 209 210 213 214 220 221 221 219 219 220 221 222 225 226 226 227 230 233 222 226 233 242 241 242 247 242 244 251 255 253
331 323 305 278 245 233 225 220 215 210 210 210 212 213 213 212 209 212 216 213 219 222 223 219 221 220 222 225 226 231 226 229 228 226 230 242 243 244 246 247 244 245 250 251 254
333 328 310 287 247 231 226 220 217 210 209 210 211 213 212 214 211 209 213 214 219 221 222 223 223 222 224 226 228 229 232 230 230 237 242 240 240 242 246 249 252 243 248 256 262
337 334 314 291 255 229 226 220 218 213 209 209 210 212 212 213 211 209 210 213 220 217 222 223 224 225 225 225 229 232 233 234 237 240 241 239 240 242 249 251 249 250 253 258 262
341 336 317 292 262 234 225 221 217 216 211 210 210 211 212 213 213 209 211 211 211 212 220 221 222 224 226 226 229 231 234 235 237 238 237 236 237 243 247 247 249 255 253 257 257
344 338 321 293 263 238 224 222 219 217 213 210 211 212 212 213 215 215 215 214 214 216 219 222 220 224 225 225 228 231 233 236 237 238 240 237 240 243 245 245 252 256 258 260 256
348 340 327 294 266 243 228 220 220 217 216 212 211 212 213 215 214 217 219 215 215 216 216 216 221 216 222 229 227 232 234 237 239 240 240 242 242 244 245 246 253 256 257 257 257
352 344 333 301 271 245 231 222 219 219 218 216 213 213 214 214 216 216 218 219 219 217 218 217 215 216 222 225 230 232 237 238 240 243 243 244 246 245 248 249 251 250 252 255 257
357 348 337 314 278 250 234 223 218 218 219 218 215 214 215 215 216 217 217 220 222 222 219 220 217 216 221 223 227 233 236 237 239 244 245 246 247 246 244 248 246 249 251 255 259
359 353 342 321 286 252 238 223 215 216 219 218 217 216 216 217 217 217 218 219 222 224 221 219 219 219 222 227 224 227 226 237 239 239 242 243 245 244 241 242 247 248 251 254 257
2 356 348 334 304 260 237 221 213 214 216 218 218 218 217 218 218 219 218 218 221 223 224 225 224 223 221 226 224 229 229 231 231 232 238 241 242 242 244 245 248 251 252 252 254
2 359 353 344 321 279 239 228 221 214 215 217 218 218 218 219 219 220 220 219 221 224 225 225 225 227 225 227 227 229 228 230 235 233 231 236 238 243 244 244 247 247 249 249 245
3 0 355 350 338 308 250 231 225 220 217 218 218 217 218 220 220 221 221 221 221 223 226 228 230 232 229 233 227 228 229 231 235 233 236 236 238 237 242 241 242 246 246 247 254
5 2 359 355 350 340 274 235 226 224 220 218 219 220 218 219 220 221 223 222 223 223 226 228 231 234 236 236 235 232 230 232 236 235 233 236 238 239 239 241 243 241 242 247 249
6 5 360 1 355 356 326 248 228 226 225 219 219 220 220 220 221 222 222 223 224 225 226 227 230 233 235 237 238 238 236 238 234 236 237 239 240 238 241 243 243 247 249 249 254
6 6 2 5 3 0 354 288 240 228 224 223 220 220 220 221 220 221 223 224 225 226 227 229 230 232 235 237 238 238 239 240 239 239 237 240 242 242 245 245 248 253 254 252 253
3 6 6 8 7 6 8 352 268 234 222 222 223 220 220 220 221 221 223 225 225 226 228 229 231 233 235 237 239 240 240 241 243 243 242 242 244 241 244 244 248 255 254 253 254
1 7 7 10 13 11 12 14 355 259 232 222 220 221 222 222 221 221 223 225 227 229 230 230 231 233 236 238 239 241 242 243 245 246 246 247 247 246 250 247 250 253 254 254 255
0 7 8 10 16 18 16 16 20 334 234 224 222 222 222 223 222 224 223 225 228 230 231 231 232 234 235 237 240 242 243 244 246 247 249 250 250 252 254 252 252 255 256 258 262
Height
10558 10553 10547 10548 10553 10559 10571 10585 10596 10611 10625 10639 10650 10662 10674 10687 10694 10701 10714 10725 10735 10747 10756 10763 10770 10781 10790 10801 10808 10815 10821 10827 10834 10841 10845 10849 10854 10857 10860 10864 10866 10867 10870 10873 10874
10543 10540 10536 10533 10536 10542 10550 10566 10580 10594 10610 10624 10636 10649 10660 10675 10681 10689 10703 10713 10728 10738 10750 10755 10762 10772 10782 10791 10798 10808 10814 10821 10828 10835 10837 10842 10847 10851 10855 10859 10862 10863 10865 10869 10870
10530 10522 10521 10517 10519 10525 10533 10545 10563 10578 10594 10607 10623 10635 10648 10660 10669 10677 10688 10702 10715 10727 10739 10746 10754 10764 10773 10780 10789 10797 10804 10813 10820 10827 10831 10835 10840 10845 10848 10853 10855 10858 10859 10863 10865
10512 10505 10502 10499 10502 10506 10514 10524 10540 10559 10576 10590 10607 10619 10634 10647 10657 10670 10677 10691 10704 10715 10727 10738 10746 10755 10765 10771 10779 10786 10794 10803 10811 10818 10824 10827 10833 10838 10842 10845 10848 10852 10855 10857 10859
10489 10484 10481 10480 10480 10487 10494 10505 10518 10536 10557 10574 10588 10605 10618 10632 10646 10656 10667 10677 10692 10703 10717 10729 10738 10747 10755 10762 10768 10778 10784 10794 10801 10809 10815 10819 10825 10830 10835 10837 10840 10844 10849 10850 10851
10475 10460 10456 10457 10458 10466 10474 10483 10497 10514 10534 10553 10571 10588 10602 10617 10633 10643 10653 10665 10679 10692 10706 10717 10727 10736 10746 10752 10761 10767 10774 10784 10793 10799 10806 10813 10818 10821 10826 10830 10833 10837 10841 10845 10845
10452 10439 10433 10433 10435 10442 10453 10464 10477 10492 10512 10533 10552 10570 10587 10600 10617 10632 10640 10651 10668 10680 10694 10706 10716 10726 10732 10739 10749 10758 10765 10776 10787 10791 10798 10805 10811 10813 10820 10822 10825 10828 10833 10838 10839
10432 10419 10413 10411 10414 10420 10432 10444 10456 10471 10491 10510 10531 10550 10568 10586 10602 10617 10626 10641 10653 10666 10681 10695 10706 10714 10721 10729 10739 10750 10754 10766 10776 10782 10788 10795 10801 10806 10811 10813 10816 10820 10824 10829 10832
10414 10402 10393 10392 10394 10400 10412 10423 10437 10453 10471 10489 10510 10532 10550 10569 10585 10601 10613 10626 10639 10653 10668 10685 10693 10703 10710 10720 10727 10737 10751 10757 10765 10772 10777 10785 10787 10795 10799 10803 10807 10811 10815 10819 10822
10397 10386 10376 10376 10377 10382 10392 10405 10417 10434 10451 10467 10489 10511 10533 10549 10570 10584 10600 10614 10626 10638 10653 10671 10679 10689 10701 10711 10722 10727 10738 10746 10752 10759 10767 10774 10778 10782 10788 10794 10799 10803 10806 10809 10813
10383 10371 10362 10361 10363 10367 10376 10388 10400 10415 10433 10450 10469 10487 10509 10526 10551 10566 10586 10598 10611 10627 10637 10654 10665 10681 10690 10697 10707 10714 10724 10732 10738 10745 10754 10764 10768 10771 10778 10783 10790 10793 10797 10800 10804
10373 10360 10350 10347 10348 10352 10359 10371 10383 10397 10412 10433 10451 10471 10492 10506 10531 10550 10568 10584 10598 10613 10625 10638 10655 10664 10674 10685 10694 10704 10711 10720 10727 10734 10743 10751 10756 10760 10768 10774 10779 10786 10789 10792 10796
10363 10348 10341 10335 10335 10340 10347 10357 10370 10381 10399 10418 10434 10453 10474 10491 10513 10534 10547 10565 10582 10595 10611 10624 10639 10650 10660 10673 10681 10689 10697 10707 10715 10719 10728 10736 10747 10755 10759 10763 10770 10773 10778 10782 10787
10355 10339 10332 10325 10324 10327 10333 10344 10356 10370 10386 10401 10420 10435 10457 10473 10492 10515 10530 10548 10565 10579 10592 10610 10626 10634 10645 10658 10668 10676 10683 10690 10700 10706 10715 10721 10737 10744 10750 10754 10759 10762 10766 10770 10774
10349 10333 10323 10316 10314 10317 10322 10333 10345 10361 10372 10387 10403 10421 10436 10458 10478 10496 10511 10532 10548 10564 10582 10599 10611 10621 10630 10644 10655 10664 10670 10677 10684 10690 10701 10709 10721 10733 10739 10745 10748 10751 10753 10755 10758
10344 10327 10314 10309 10306 10308 10312 10320 10334 10350 10361 10375 10392 10405 10422 10444 10459 10479 10497 10513 10528 10545 10564 10581 10594 10606 10619 10628 10637 10652 10656 10664 10669 10675 10685 10703 10708 10722 10725 10731 10735 10738 10742 10743 10745
10339 10323 10309 10303 10299 10298 10303 10311 10326 10341 10349 10363 10378 10394 10408 10426 10441 10461 10481 10498 10514 10532 10550 10563 10579 10594 10604 10616 10626 10636 10643 10648 10653 10660 10682 10688 10693 10715 10714 10714 10722 10725 10728 10730 10731
10340 10323 10308 10298 10293 10291 10295 10306 10317 10323 10335 10349 10364 10379 10395 10411 10427 10444 10462 10482 10499 10514 10529 10545 10561 10576 10590 10601 10615 10621 10626 10633 10642 10653 10666 10671 10682 10694 10701 10698 10703 10708 10712 10714 10717
10343 10322 10307 10295 10289 10286 10289 10294 10299 10310 10325 10338 10349 10364 10379 10395 10410 10425 10446 10467 10479 10496 10512 10530 10542 10558 10570 10582 10595 10608 10615 10624 10631 10637 10646 10657 10672 10674 10683 10691 10689 10691 10696 10699 10703
10342 10323 10306 10294 10287 10283 10283 10287 10292 10301 10312 10323 10337 10353 10366 10378 10396 10413 10429 10449 10466 10481 10497 10511 10521 10537 10551 10564 10576 10591 10600 10604 10612 10623 10632 10646 10656 10657 10664 10672 10676 10678 10678 10682 10686
10344 10322 10308 10294 10286 10280 10280 10281 10287 10295 10303 10313 10326 10339 10350 10365 10382 10398 10414 10435 10451 10467 10481 10492 10504 10517 10531 10547 10560 10571 10582 10589 10596 10607 10622 10633 10639 10643 10650 10653 10659 10664 10666 10666 10668
10348 10325 10309 10293 10286 10279 10276 10277 10282 10287 10295 10306 10316 10327 10340 10353 10369 10384 10401 10419 10436 10448 10462 10473 10485 10498 10512 10526 10538 10550 10562 10571 10577 10594 10602 10614 10625 10630 10633 10637 10639 10645 10648 10651 10652
10354 10331 10313 10296 10285 10278 10274 10273 10276 10281 10288 10297 10308 10319 10331 10344 10360 10375 10389 10403 10418 10433 10445 10455 10470 10483 10491 10505 10520 10532 10544 10551 10561 10570 10585 10595 10609 10610 10613 10616 10620 10626 10629 10633 10634
10359 10338 10317 10300 10286 10277 10272 10270 10272 10276 10282 10289 10299 10311 10322 10334 10349 10362 10374 10388 10401 10415 10427 10442 10456 10467 10474 10487 10496 10511 10519 10528 10537 10551 10563 10574 10582 10590 10597 10598 10599 10604 10611 10612 10612
10366 10345 10323 10304 10288 10278 10272 10270 10270 10271 10276 10283 10291 10302 10312 10326 10336 10349 10361 10372 10384 10397 10411 10429 10442 10453 10460 10471 10481 10493 10501 10509 10523 10532 10543 10553 10560 10569 10575 10577 10579 10584 10587 10592 10592
10368 10350 10328 10309 10291 10280 10273 10269 10269 10271 10273 10277 10284 10293 10303 10315 10327 10340 10352 10362 10374 10385 10398 10414 10427 10435 10445 10454 10465 10476 10485 10494 10505 10515 10522 10531 10537 10545 10553 10558 10561 10565 10568 10569 10571
10372 10355 10336 10316 10296 10282 10274 10270 10269 10270 10272 10276 10280 10287 10296 10306 10322 10333 10344 10353 10361 10372 10387 10399 10410 10418 10428 10438 10446 10460 10469 10473 10482 10491 10497 10508 10515 10521 10528 10533 10535 10541 10547 10548 10549